Alicante, Spain

10:55 AM CET on February 24, 2017 (GMT +0100)
Alicante

Weather History for LEAL - March, 2012

Change the Weather History Date:

Monday, March 26, 2012

  Actual Average Record
Temperature  
Mean Temperature 56 °F -  
Max Temperature 67 °F 67 °F 75 °F (2006)
Min Temperature 45 °F 49 °F 44 °F (2003)
Degree Days  
Heating Degree Days 9    
Growing Degree Days 6 (Base 50)    
Moisture  
Dew Point 44 °F    
Average Humidity 62    
Maximum Humidity 94    
Minimum Humidity 25    
Precipitation  
Precipitation 0.00 in - - ()
Sea Level Pressure  
Sea Level Pressure 30.24 in    
Wind  
Wind Speed 5 mph ()    
Max Wind Speed 18 mph    
Max Gust Speed -    
Visibility 7.2 miles    
Events      
Averages and records for this station are not official NWS values.
T = Trace of Precipitation, MM = Missing Value Source: Averaged Metar Reports

Daily Weather History Graph

Daily Weather History Graph

Search for Another Location

Airport or City:

Trip Planner

Search our weather history database for the weather conditions in past years. The results will help you decide how hot, cold, wet, or windy it might be!

Date:

Astronomy

Mar. 26, 2012 Rise Set
Actual Time 7:56 AM CEST 8:20 PM CEST
Civil Twilight 7:29 AM CEST 8:46 PM CEST
Nautical Twilight 6:58 AM CEST 9:17 PM CEST
Astronomical Twilight 6:26 AM CEST 9:49 PM CEST
Moon 9:39 AM CEST (3/26) No Moon Set
Length of Visible Light 13h 16m
Length of Day
12h 24m
Waxing Crescent, 13% of the Moon is Illuminated
Mar 26
Waxing Crescent
Mar 30
First Quarter
Apr 6
Full
Apr 13
Last Quarter
Apr 21
New

Hourly Weather History & Observations

Time (CEST) Temp. Dew Point Humidity Pressure Visibility Wind Dir Wind Speed Gust Speed Precip Events Conditions
12:00 AM 53.6 °F 51.8 °F 94% 30.27 in 6.2 mi Variable 1.2 mph - N/A   Partly Cloudy
12:30 AM 53.6 °F 51.8 °F 94% 30.27 in 6.2 mi North 3.5 mph - N/A   Partly Cloudy
1:00 AM 53.6 °F 50.0 °F 88% 30.27 in 6.2 mi North 3.5 mph - N/A   Partly Cloudy
1:30 AM 51.8 °F 50.0 °F 94% 30.27 in 6.2 mi Variable 2.3 mph - N/A   Partly Cloudy
2:00 AM 51 °F 45 °F 74% 30.27 in 9 mi Calm Calm - -   Scattered Clouds
2:00 AM 51.8 °F 48.2 °F 88% 30.27 in 6.2 mi Variable 1.2 mph - N/A   Partly Cloudy
2:30 AM 50.0 °F 48.2 °F 94% 30.24 in 6.2 mi Calm Calm - N/A   Partly Cloudy
3:00 AM 50.0 °F 44.6 °F 82% 30.24 in 6.2 mi Calm Calm - N/A   Partly Cloudy
3:30 AM 48.2 °F 44.6 °F 87% 30.24 in 6.2 mi Calm Calm - N/A   Partly Cloudy
4:00 AM 48.2 °F 42.8 °F 82% 30.24 in 6.2 mi Calm Calm - N/A   Partly Cloudy
4:30 AM 48.2 °F 42.8 °F 82% 30.24 in 6.2 mi Calm Calm - N/A   Partly Cloudy
5:00 AM 46.4 °F 41.0 °F 81% 30.21 in 6.2 mi Calm Calm - N/A   Partly Cloudy
5:30 AM 48.2 °F 41.0 °F 76% 30.21 in 6.2 mi Calm Calm - N/A   Partly Cloudy
6:00 AM 46.4 °F 41.0 °F 81% 30.21 in 6.2 mi Calm Calm - N/A   Partly Cloudy
6:30 AM 46.4 °F 41.0 °F 81% 30.21 in 6.2 mi Calm Calm - N/A   Partly Cloudy
7:00 AM 46.4 °F 41.0 °F 81% 30.21 in 6.2 mi Calm Calm - N/A   Partly Cloudy
7:30 AM 50.0 °F 39.2 °F 66% 30.21 in 6.2 mi Calm Calm - N/A   Partly Cloudy
8:00 AM 51 °F 37 °F 48% 30.23 in 12 mi Calm Calm - -   Clear
8:00 AM 51.8 °F 39.2 °F 62% 30.21 in - Calm Calm - N/A   Clear
8:30 AM 53.6 °F 39.2 °F 58% 30.21 in - Calm Calm - N/A   Clear
9:00 AM 55.4 °F 39.2 °F 54% 30.24 in - North 3.5 mph - N/A   Clear
9:30 AM 59.0 °F 39.2 °F 48% 30.24 in - Variable 1.2 mph - N/A   Clear
10:00 AM 60.8 °F 41.0 °F 48% 30.24 in - NE 4.6 mph - N/A   Clear
10:30 AM 62.6 °F 42.8 °F 48% 30.24 in - ENE 9.2 mph - N/A   Clear
11:00 AM 62.6 °F 44.6 °F 52% 30.24 in - ENE 10.4 mph - N/A   Clear
11:30 AM 64.4 °F 44.6 °F 49% 30.27 in - ENE 15.0 mph - N/A   Clear
12:00 PM 64.4 °F 44.6 °F 49% 30.27 in - ENE 17.3 mph - N/A   Clear
12:30 PM 64.4 °F 42.8 °F 45% 30.27 in - ENE 18.4 mph - N/A   Clear
1:00 PM 66.2 °F 44.6 °F 46% 30.27 in - ENE 18.4 mph - N/A   Clear
1:30 PM 68.0 °F 44.6 °F 43% 30.24 in - NE 16.1 mph - N/A   Clear
2:00 PM 66 °F 39 °F 25% 30.25 in 12 mi ENE 16.1 mph - -   Clear
2:00 PM 66.2 °F 42.8 °F 43% 30.24 in - ENE 15.0 mph - N/A   Clear
2:30 PM 68.0 °F 42.8 °F 40% 30.24 in - ENE 12.7 mph - N/A   Clear
3:00 PM 66.2 °F 46.4 °F 49% 30.24 in - East 13.8 mph - N/A   Clear
3:30 PM 66.2 °F 46.4 °F 49% 30.24 in - East 16.1 mph - N/A   Clear
4:00 PM 66.2 °F 44.6 °F 46% 30.21 in - ENE 17.3 mph - N/A   Clear
4:30 PM 66.2 °F 46.4 °F 49% 30.21 in - East 17.3 mph - N/A   Clear
5:00 PM 64.4 °F 44.6 °F 49% 30.21 in - ENE 18.4 mph - N/A   Clear
5:30 PM 64.4 °F 46.4 °F 52% 30.21 in - ENE 16.1 mph - N/A   Clear
6:00 PM 64.4 °F 46.4 °F 52% 30.21 in - ENE 15.0 mph - N/A   Clear
6:30 PM 62.6 °F 46.4 °F 55% 30.21 in - ENE 12.7 mph - N/A   Clear
7:00 PM 62.6 °F 48.2 °F 59% 30.21 in - ENE 11.5 mph - N/A   Clear
7:30 PM 62.6 °F 46.4 °F 55% 30.21 in - ENE 15.0 mph - N/A   Clear
8:00 PM 61 °F 44 °F 43% 30.24 in 12 mi ENE 10.4 mph - -   Clear
8:00 PM 60.8 °F 48.2 °F 63% 30.21 in - ENE 10.4 mph - N/A   Clear
8:30 PM 60.8 °F 48.2 °F 63% 30.24 in - ENE 8.1 mph - N/A   Clear
9:00 PM 60.8 °F 48.2 °F 63% 30.24 in - ENE 10.4 mph - N/A   Clear
9:30 PM 60.8 °F 46.4 °F 59% 30.24 in - ENE 11.5 mph - N/A   Clear
10:00 PM 59.0 °F 46.4 °F 63% 30.27 in - ENE 11.5 mph - N/A   Clear
10:30 PM 59.0 °F 46.4 °F 63% 30.27 in - NNE 3.5 mph - N/A   Clear
11:00 PM 57.2 °F 44.6 °F 63% 30.27 in - Variable 2.3 mph - N/A   Clear
11:30 PM 57.2 °F 44.6 °F 63% 30.27 in - NNE 4.6 mph - N/A   Clear